www.pogodaiklimat.ru

АРХИВ ПОГОДЫ в Краснодаре

Время (UTC), дата Ветер
(напр.,м/с)
 
Видим.   Явления Облачность Т
(С)
Тd
(С)
f
(%)
Тe
(С)
Тes
(С)
Комфортность P
(гПа)
Po
(гПа)
Тmin
(С)
Tmax
(С)
R
(мм)
S
(см)
09 9.04 Ю 4
{10}
10 км 10/4 1000 м
[Cb cap Ac trans Ci fib]
+14.5 +5.4 54 +13 +16 по сезону 1014.4 1010.8
12 9.04 Ю 5-10
{12}
10 км 5/3 1000 м
[Sc diur, vesp Ac trans Cc]
+15.3 +5.8 53 +14 +17 по сезону 1014.0 1010.4
15 9.04 Ю 3
{10}
10 км 10/3 1000 м
[Sc Ac trans Cc]
+13.1 +5.5 60 +12 +12 по сезону 1014.0 1010.4 +16.4
18 9.04 Ю 3 10 км 4/0
[Ac trans Ci fib]
+10.5 +5.3 70 +9 +9 по сезону 1014.4 1010.7
21 9.04 ЮЗ 3 10 км 9/3 1000 м
[Sc Ac trans]
+10.1 +4.5 68 +8 +8 по сезону 1013.9 1010.3
00 10.04 ЮЗ 3 10 км 10/5 1000 м
[Sc Ac trans Ci fib]
+10.1 +4.6 69 +8 +8 по сезону 1013.4 1009.8
03 10.04 ЮЗ 2 10 км 10/5 1000 м
[Sc Ac trans Ci fib]
+10.1 +5.1 71 +9 +9 по сезону 1013.4 1009.8 +9.8
06 10.04 Ю 2 10 км 3/0
[Ac trans]
+13.6 +5.0 56 +13 +19 тепло 1013.6 1010.0
09 10.04 Ю 1 10 км ясно +19.3 +2.3 32 +21 +38 комфорт 1013.1 1009.5
12 10.04 Ю 2 10 км 3/3 1000 м
[Cu hum]
+20.9 +1.6 28 +22 +28 комфорт 1012.2 1008.7
15 10.04 ЮЗ 1 10 км 1/0
[Ci fib]
+20.5 +1.3 28 +22 +23 комфорт 1012.2 1008.7 +22.4
18 10.04 СВ 1 10 км 1/0
[Ci fib]
+14.6 +5.0 53 +15 +15 тепло 1014.4 1010.8
21 10.04 С 2 10 км ясно +12.2 +3.7 56 +12 +12 тепло 1014.8 1011.2
00 11.04 штиль 0 10 км ясно +9.1 +3.5 68 +9 +9 по сезону 1015.2 1011.5
03 11.04 СВ 1 10 км 3/0
[Ac lent]
+8.4 +3.7 72 +8 +8 по сезону 1016.0 1012.3 +8.1
06 11.04 В 2 10 км 3/0
[Cc]
+12.4 +6.5 67 +12 +18 тепло 1017.6 1014.0 +7.9
09 11.04 СВ 3 10 км ясно +17.1 +6.8 51 +17 +29 опасность
простуды
1018.1 1014.5
12 11.04 СВ 4 10 км 1/0
[Ci fib]
+18.8 +6.7 45 +19 +26 тепло 1017.5 1013.9
15 11.04 СВ 3 10 км ясно +13.0 +5.2 59 +12 +13 по сезону 1018.6 1015.0 +19.5
18 11.04 СВ 3
{12}
10 км ясно +7.8 +4.0 77 +5 +5 холодно 1019.7 1016.0
21 11.04 СВ 2 10 км ясно +6.8 +4.0 82 +5 +5 прохладно 1019.3 1015.6
00 12.04 СВ 2 10 км 3/0
[Ci fib]
+6.7 +4.0 83 +4 +4 прохладно 1018.7 1015.0
03 12.04 СВ 2 10 км 10/0
[Ac trans Ci fib]
+6.8 +4.2 83 +5 +5 прохладно 1018.1 1014.4 +6.6
06 12.04 В 4 10 км 9/4 1000 м
[Cb cap Ac trans]
+10.5 +5.1 69 +8 +10 по сезону 1018.3 1014.6
09 12.04 СВ 2 10 км 8/3 1000 м
[Cb cap Ac trans]
+16.2 +6.5 53 +16 +22 тепло 1017.6 1014.0
12 12.04 В 3 10 км 8/4 1000 м
[Sc Ac trans Ci sp]
+19.4 +6.2 42 +20 +23 тепло 1016.3 1012.8
15 12.04 СВ 3 10 км 3/0
[Ac trans]
+18.7 +5.6 42 +19 +20 тепло 1015.1 1011.6 +20.0
18 12.04 В 4 10 км в посл. час ливневой дождь 10/10 600 м
[Cb cap]
+13.7 +6.1 60 +12 +12 по сезону 1016.9 1013.3
21 12.04 В 1 10 км {ливн. осадки} 9/9 600 м
[Sc diur, vesp]
+10.6 +6.8 77 +10 +10 по сезону 1017.1 1013.4
00 13.04 В 1 10 км в посл. час ливневой дождь 10/10 600 м
[Cb cap]
+9.5 +6.3 80 +9 +9 по сезону 1015.9 1012.3
03 13.04 В 2 10 км в посл. час ливневой дождь 10/10 600 м
[Cb cap]
+8.8 +7.4 91 +7 +7 по сезону 1016.0 1012.3 +8.6 4
06 13.04 ЮВ 1 4000 м слабый ливневой дождь 10/10 600 м
[Cb cap]
+9.5 +8.0 90 +9 +9 по сезону 1017.7 1014.0
09 13.04 Ю 1 4000 м слабый ливневой дождь 10/10 1000 м
[Cb cap]
+11.5 +10.0 90 +11 +11 по сезону 1018.2 1014.5
12 13.04 ЮЗ 2 10 км {ливн. осадки} 10/8 1000 м
[Cb cap Ci fib]
+15.3 +8.5 64 +15 +17 по сезону 1017.5 1013.9
15 13.04 С 1 10 км 9/5 1000 м
[Cb cap Ci fib]
+16.3 +6.8 53 +17 +18 тепло 1017.3 1013.7 +17.1 2
18 13.04 штиль 0 10 км 3/1 1000 м
[Sc Ac trans]
+11.8 +8.8 82 +11 +11 по сезону 1018.5 1014.9
21 13.04 З 1 10 км ясно +10.0 +8.0 87 +10 +10 по сезону 1018.8 1015.1
00 14.04 штиль 0 10 км 9/9 300 м
[St]
+8.1 +6.6 90 +7 +7 по сезону 1018.1 1014.4
03 14.04 штиль 0 10 км 10/10 300 м
[St]
+8.4 +6.5 88 +8 +8 по сезону 1018.0 1014.3 +6.8
06 14.04 СЗ 1 10 км 9/9 300 м
[St]
+11.0 +6.8 75 +11 +12 по сезону 1018.5 1014.8
09 14.04 С 1 10 км 10/5 600 м
[Sc Ac trans Cs]
+15.8 +7.8 59 +17 +21 тепло 1017.9 1014.3
12 14.04 С 1 10 км 10/4 1000 м
[Cb cap Cs]
+16.9 +7.4 53 +18 +23 тепло 1016.5 1013.0
15 14.04 В 2 10 км 10/4 1000 м
[Cb cap Ac trans Ci fib]
+14.9 +7.2 60 +15 +15 по сезону 1016.0 1012.4 +17.4
18 14.04 ЮВ 1 4000 м слабый ливневой дождь 10/10 600 м
[Cb cap]
+12.6 +8.1 74 +13 +13 по сезону 1016.9 1013.3
21 14.04 Ю 1 4000 м слабый ливневой дождь 10/8 300 м
[Cb cap Ac und]
+10.6 +8.4 86 +10 +10 по сезону 1017.1 1013.5
00 15.04 ЮЗ 1 10 км {ливн. осадки} 9/6 1000 м
[Cb cap Ac trans]
+10.5 +7.9 84 +10 +10 по сезону 1017.3 1013.6
03 15.04 штиль 0 10 км {ливн. осадки} 10/3 1000 м
[Sc Ci fib]
+8.1 +6.9 92 +7 +7 по сезону 1017.5 1013.8 +8.1 0.3
06 15.04 ЮВ 1 10 км 4/4 300 м
[St]
+14.0 +8.2 68 +14 +20 тепло 1018.2 1014.5 +8.0
09 15.04 В 2 10 км 8/3 1000 м
[Cu med, cong Cc]
+16.1 +7.9 58 +16 +25 тепло 1018.0 1014.4
12 15.04 В 3 10 км 8/0
[Cc]
+18.7 +6.5 45 +19 +26 тепло 1016.9 1013.4
15 15.04 В 2 10 км 9/0
[Cc]
+17.6 +6.8 49 +18 +19 тепло 1016.4 1012.8 +18.9
18 15.04 СВ 2 10 км 1/0
[Ci fib]
+13.5 +8.1 70 +13 +13 по сезону 1017.1 1013.5
21 15.04 СВ 1 10 км 8/1 1000 м
[Sc Ci fib]
+12.6 +8.9 78 +13 +13 тепло 1016.4 1012.8
00 16.04 СВ 1 10 км 6/0
[Ci fib]
+10.6 +8.9 89 +10 +10 по сезону 1015.7 1012.1
03 16.04 штиль 0 4000 м дымка 1/0
[Ac trans]
+9.0 +8.0 93 +8 +8 по сезону 1016.1 1012.4 +8.8
06 16.04 ЮЗ 1 4000 м дымка ясно +15.0 +10.2 73 +16 +24 тепло 1017.3 1013.7

 

Обсудить погоду в Краснодаре на МЕТЕОФОРУМЕ

 

Местоположение метеостанции Краснодар (Краснодарский край, Россия): широта 45.03 долгота 39.15 высота над уровнем моря 34 м.

В архиве по умолчанию представлена погода в Краснодаре за последнюю неделю. Архивные данные за месяц целиком и за предыдущие месяцы, начиная с января 2011 года, Вы можете получить, выбрав интересующий диапазон дат из раскрывающегося списка и нажав кнопку "Ввод!".

Внимание! Время в таблицах - всемирное. Для получения местного времени необходимо прибавить поправку, которая в Краснодаре равна 4 ч.

Ветер - указаны скорость ветра в м/с - средняя за 10 мин, порывы в срок и между сроками (в фигурных скобках) и направление, откуда дует ветер: С - северный, СВ - северо-восточный, В - восточный, ЮВ - юго-восточный, Ю - южный, ЮЗ - юго-западный, З - западный, СЗ - северо-западный.
Видимость - горизонтальная дальность видимости в метрах или километрах. При видимости от 1 до 10 км при отсутствии осадков обычно наблюдается дымка, при ухудшении видимости до 1 км и менее - туман. В сухую погоду видимость может ухудшаться дымом, пылью или мглою.
Явления - указаны атсосферные явления, наблюдавшиеся в срок или в последний час перед сроком; фигурными скобками обозначены явления, наблюдавшиеся между сроками (за 1-3 часа до срока); квадратными скобками обозначены град или гололедные отложения с указанием их диаметра в мм.
Облачность - указаны через наклонную черту общая и нижняя облачность в баллах и высота нижней границы облаков в метрах; квадратными скобками обозначены формы облаков: Ci - перистые, Cs - перисто-слоистые, Cc - перисто-кучевые, Ac - высококучевые, As - высокослоистые, Sc - слоисто-кучевые, Ns - слоисто-дождевые, Cu - кучевые, Cb - кучево-дождевые. Подробнее классификацию облаков см. в Атласе облаков (PDF).
T - Температура воздуха - температура, измеренная на высоте 2 м над землей.
Td - Температура точки росы - температура, при понижении до которой содержащийся в воздухе водяной пар достигнет насыщения.
f - Относительная влажность воздуха - влажноcть воздуха, измеренная на высоте 2 м над землей.
Te - Эффективная температура - температура, которую ощущает одетый по сезону человек в тени. Характеристика душности погоды. При расчете учитывается влияние влажности воздуха и скорости ветра на теплоощущения человека.
Tes - Эффективная температура на солнце - температура, которую ощущает человек, с поправкой на солнечный нагрев. Характеристика знойности погоды. Зависит от высоты солнца над горизонтом, облачности и скорости ветра. Ночью, в пасмурную погоду, а также при ветре 12 м/с и более поправка равна нулю.
P - Атмосферное давление - приведенное к уровню моря атмосферное давление.
Po - Атмосферное давление - измеренное на уровне метеостанции атмосферное давление.
Tmin - Минимальная температура - минимум температуры воздуха на высоте 2 м над землей.
Tmax - Максимальная температура - максимум температуры воздуха на высоте 2 м над землей.
R - Количество осадков - Количество выпавших осадков, мм.
S - Снежный покров - Высота снежного покрова, см.